User: anonymous   Login
Location: Unspecified
(0.0000°N, 0.0000°E)
Time: 01:46:43
(UTC+02:00)
Language:

Cosmos 494 Rocket - Orbit

View from above orbital plane
View from above orbital plane
View from above satellite
View from above satellite

Ground track
Ground track

The orbit data is extracted from the following two-line orbital elements,

1  6061U 72043B   17292.51174429 +.00000070 +00000-0 +30122-4 0  9992
2  6061 074.0553 310.5277 0019052 046.9511 313.3236 14.40511408375966
Epoch (UTC): 19 October 2017 12:16:54
Eccentricity: 0.0019052
inclination: 74.0553°
perigee height: 743 km
apogee height: 770 km
right ascension of ascending node: 310.5277°
argument of perigee: 46.9511°
revolutions per day: 14.40511408
mean anomaly at epoch: 313.3236°
orbit number at epoch: 37596

The dashed part of the orbit path shows where the satellite is in the earth's shadow,  

DLR